AB, Nunavut

7:12 AM CST on February 26, 2017 (GMT -0600)
Eureka

Weather History for CWEU - October, 2012

Change the Weather History Date:

Friday, October 19, 2012

  Actual Average Record
Temperature  
Mean Temperature -5 °F -  
Max Temperature 3 °F -12 °F 30 °F (2005)
Min Temperature -13 °F -26 °F -29 °F (2014)
Degree Days  
Heating Degree Days 70    
Moisture  
Dew Point -11 °F    
Average Humidity 74    
Maximum Humidity 85    
Minimum Humidity 59    
Precipitation  
Precipitation 0.00 in 0.01 in - ()
Sea Level Pressure  
Sea Level Pressure 30.03 in    
Wind  
Wind Speed 2 mph ()    
Max Wind Speed 9 mph    
Max Gust Speed -    
Visibility 15.0 miles    
Events      
Averages and records for this station are not official NWS values.
T = Trace of Precipitation, MM = Missing Value Source: Averaged Metar Reports

Daily Weather History Graph

Daily Weather History Graph

Search for Another Location

Airport or City:

Trip Planner

Search our weather history database for the weather conditions in past years. The results will help you decide how hot, cold, wet, or windy it might be!

Date:

Astronomy

Oct. 19, 2012 Rise Set
Actual Time 11:10 AM CDT 1:44 PM CDT
Civil Twilight 8:05 AM CDT 4:47 PM CDT
Nautical Twilight 5:43 AM CDT 7:08 PM CDT
Astronomical Twilight 3:00 AM CDT 9:47 PM CDT
Moon No Moon Rise No Moon Set
Length of Visible Light 8h 41m
Length of Day
2h 33m
Waxing Crescent, 24% of the Moon is Illuminated
Oct 19
Waxing Crescent
Oct 21
First Quarter
Oct 29
Full
Nov 6
Last Quarter
Nov 13
New

Hourly Weather History & Observations

Time (CDT) Temp. Windchill Dew Point Humidity Pressure Visibility Wind Dir Wind Speed Gust Speed Precip Events Conditions
1:00 AM 2 °F - -3 °F 71% 29.97 in 15 mi Calm Calm - -  
1:00 AM 1.4 °F - -2.2 °F 85% 29.97 in 15.0 mi Calm Calm - N/A   Clear
2:00 AM 3.2 °F -4.2 °F -2.2 °F 78% 29.98 in 15.0 mi East 3.5 mph - N/A   Clear
3:00 AM 1.4 °F - -7.6 °F 66% 29.99 in 15.0 mi Calm Calm - N/A   Clear
4:00 AM -0.4 °F - -4.0 °F 85% 30.00 in 15.0 mi Calm Calm - N/A   Clear
5:00 AM 1.4 °F -6.2 °F -2.2 °F 85% 30.01 in 15.0 mi WSW 3.5 mph - N/A   Clear
6:00 AM 3.2 °F -6.2 °F -2.2 °F 78% 29.99 in 15.0 mi NW 4.6 mph - N/A   Clear
7:00 AM 1 °F - -3 °F 74% 29.99 in 37 mi Calm Calm - -   Scattered Clouds
7:00 AM 1.4 °F -6.2 °F -2.2 °F 85% 29.99 in 40.0 mi NNW 3.5 mph - N/A   Partly Cloudy
8:00 AM 3.2 °F -6.2 °F -2.2 °F 78% 29.99 in 40.0 mi West 4.6 mph - N/A   Clear
9:00 AM 1.4 °F -13.5 °F -2.2 °F 85% 30.01 in 40.0 mi West 9.2 mph - N/A   Clear
10:00 AM -7.6 °F -18.8 °F -14.8 °F 71% 30.01 in 40.0 mi West 4.6 mph - N/A   Clear
11:00 AM -7.6 °F - -13.0 °F 77% 30.01 in 40.0 mi East 2.3 mph - N/A   Partly Cloudy
12:00 PM -7.6 °F -18.8 °F -14.8 °F 71% 30.02 in 40.0 mi SE 4.6 mph - N/A   Partly Cloudy
1:00 PM -7 °F - -14 °F 60% 30.03 in 37 mi SE 5.8 mph - -   Scattered Clouds
1:00 PM -7.6 °F -20.6 °F -13.0 °F 77% 30.03 in 40.0 mi SE 5.8 mph - N/A   Partly Cloudy
2:00 PM -7.6 °F - -14.8 °F 71% 30.05 in 40.0 mi Calm Calm - N/A   Partly Cloudy
3:00 PM -9.4 °F - -16.6 °F 71% 30.06 in 40.0 mi Calm Calm - N/A   Partly Cloudy
4:00 PM -11.2 °F - -18.4 °F 70% 30.07 in 40.0 mi Calm Calm - N/A   Partly Cloudy
5:00 PM -13.0 °F - -20.2 °F 70% 30.08 in 40.0 mi Calm Calm - N/A   Partly Cloudy
6:00 PM -11.2 °F - -18.4 °F 70% 30.09 in 15.0 mi SSW 2.3 mph - N/A   Clear
7:00 PM -12 °F - -19 °F 59% 30.10 in 15 mi Calm Calm - -  
7:00 PM -11.2 °F - -18.4 °F 70% 30.10 in 15.0 mi Calm Calm - N/A   Clear
8:00 PM -13.0 °F - -20.2 °F 70% 30.11 in 15.0 mi Calm Calm - N/A   Clear
9:00 PM -13.0 °F -22.7 °F -20.2 °F 70% 30.11 in 15.0 mi East 3.5 mph - N/A   Clear
10:00 PM -13.0 °F - -20.2 °F 70% 30.12 in 15.0 mi Calm Calm - N/A   Clear